2014 KP4

Initial reported observation by SONEAR Observatory, Oliveira on 2014-05-20.
(Discoverer will be defined when the object is numbered. See this note on how discoverers are determined.)

Orbit

Orbit type: Apollo
Potentially Hazardous Asteroid

Note: WebGL enabled browser required.

epoch2023-02-25.0
epoch JD2460000.5
perihelion date2021-04-27.57281
perihelion JD2459332.07281
argument of perihelion (°)235.95757
ascending node (°)249.02047
inclination (°)9.32027
eccentricity0.8206142
perihelion distance (AU)0.4164537
Tisserand w.r.t. Jupiter3.0
ΔV w.r.t. Earth (km/sec)9.6
semimajor axis (AU)2.3215527
mean anomaly (°)186.24736
mean daily motion (°/day)0.27863520
aphelion distance (AU)4.227
period (years)3.54
P-vector [x]-0.56304859
P-vector [y]0.80154640
P-vector [z]0.20124527
Q-vector [x]-0.81247140
Q-vector [y]-0.49232230
Q-vector [z]-0.31226427
absolute magnitude19.32
phase slope0.15
uncertainty0
referenceMPO 740448
observations used173
oppositions3
arc length (days)2586
first opposition used2014
last opposition used2021
residual rms (arc-secs)0.49
perturbers coarse indicatorM-v
perturbers precise indicator003Ek
first observation date used2014-05-10.0
last observation date used2021-06-09.0
computer nameMPCLINUX
JD of orbit computation2457960.392452
perihelion JD uncertainty (days)6.0705E-05
argument of perihelion uncertainty (°)1.9675E-05
ascending node uncertainty (°)1.0829E-05
inclination uncertainty (°)1.2372E-05
eccentricity uncertainty 9.9252E-08
perihelion distance uncertainty (AU)2.4581E-07
Minimum Orbit Intersection Distances (in AU)
for orbit epoch: 2460000.5, reference: E2023-E12
Mercury0.12993
Venus0.08228
Earth0.04566
Mars0.03035
Jupiter1.10102
Saturn5.82478
Uranus15.6781
Neptune26.0109

Observations

174 total observations over interval: 2014 05 10.977528 – 2021 06 09.199480
These data are available for download (format description).

Date (UT) J2000 RA J2000 Dec Magn Location Ref
2014 05 10.977528 22 50 15.346 -55 52 56.89   C51 – WISE MPS 1746846
2014 05 20.18546 15 55 32.83 -33 31 39.4 16.2 R Y00 – SONEAR Observatory, Oliveira MPS 515486
2014 05 20.19477 15 55 28.26 -33 30 22.0 16.2 R Y00 – SONEAR Observatory, Oliveira MPS 515486
2014 05 20.20881 15 55 21.36 -33 28 25.9 16.2 R Y00 – SONEAR Observatory, Oliveira MPS 515486
2014 05 20.54247 15 52 55.91 -32 44 02.7 15.7 R Q62 – iTelescope Observatory, Siding Spring MPS 515486
2014 05 20.54332 15 52 55.60 -32 43 57.4 15.6 R Q62 – iTelescope Observatory, Siding Spring MPS 515486
2014 05 20.54418 15 52 55.25 -32 43 51.4 15.7 R Q62 – iTelescope Observatory, Siding Spring MPS 515486
2014 05 20.64700 15 52 09.16 -32 30 41.4 15.4 R Q62 – iTelescope Observatory, Siding Spring MPS 515486
2014 05 20.64747 15 52 08.99 -32 30 38.3 16.0 V Q62 – iTelescope Observatory, Siding Spring MPS 515486
2014 05 20.65012 15 52 07.79 -32 30 17.6 15.4 R Q62 – iTelescope Observatory, Siding Spring MPS 515486
2014 05 20.65360 15 52 06.25 -32 29 50.8 15.4 R Q62 – iTelescope Observatory, Siding Spring MPS 515486
2014 05 20.65703 15 52 04.78 -32 29 25.0 16.1 V Q62 – iTelescope Observatory, Siding Spring MPS 515486
2014 05 20.66758 15 52 00.14 -32 28 04.1 16.2 V Q62 – iTelescope Observatory, Siding Spring MPS 515486
2014 05 20.67575 15 51 56.55 -32 27 01.2 15.9 w Q62 – iTelescope Observatory, Siding Spring MPS 515486
2014 05 20.67648 15 51 56.24 -32 26 55.4 15.8 w Q62 – iTelescope Observatory, Siding Spring MPS 515486
2014 05 20.67720 15 51 55.90 -32 26 49.7 15.8 w Q62 – iTelescope Observatory, Siding Spring MPS 515486
2014 05 20.67815 15 51 55.50 -32 26 43.2 16.1 V Q62 – iTelescope Observatory, Siding Spring MPS 515486
2014 05 20.732994 15 51 31.87 -32 19 43.6 16.3 V Q63 – Siding Spring-LCO A MPS 515486
2014 05 20.733425 15 51 31.68 -32 19 40.3 16.3 V Q63 – Siding Spring-LCO A MPS 515486
2014 05 20.733842 15 51 31.50 -32 19 37.1 16.3 V Q63 – Siding Spring-LCO A MPS 515486
2014 05 20.734678 15 51 31.16 -32 19 30.8 16.3 V Q63 – Siding Spring-LCO A MPS 515486
2014 05 20.735216 15 51 30.92 -32 19 26.6 16.2 V Q63 – Siding Spring-LCO A MPS 515486
2014 05 20.735754 15 51 30.69 -32 19 22.4 16.3 V Q63 – Siding Spring-LCO A MPS 515486
2014 05 20.736212 15 51 30.50 -32 19 19.0 16.3 V Q63 – Siding Spring-LCO A MPS 515486
2014 05 20.736661 15 51 30.31 -32 19 15.6 16.3 V Q63 – Siding Spring-LCO A MPS 515486
2014 05 20.737168 15 51 30.09 -32 19 11.7 16.3 V Q63 – Siding Spring-LCO A MPS 515486
2014 05 20.737612 15 51 29.90 -32 19 08.3 16.3 V Q63 – Siding Spring-LCO A MPS 515486
2014 05 20.738041 15 51 29.72 -32 19 05.1 16.3 V Q63 – Siding Spring-LCO A MPS 515486
2014 05 20.738460 15 51 29.54 -32 19 01.8 16.3 V Q63 – Siding Spring-LCO A MPS 515486
2014 05 20.739290 15 51 29.19 -32 18 55.5 16.3 V Q63 – Siding Spring-LCO A MPS 515486
2014 05 20.739712 15 51 29.01 -32 18 52.3 16.3 V Q63 – Siding Spring-LCO A MPS 515486
2014 05 20.740136 15 51 28.83 -32 18 49.1 16.3 V Q63 – Siding Spring-LCO A MPS 515486
2014 05 20.740585 15 51 28.64 -32 18 45.6 16.3 V Q63 – Siding Spring-LCO A MPS 515486
2014 05 20.741065 15 51 28.44 -32 18 42.0 16.2 V Q63 – Siding Spring-LCO A MPS 515486
2014 05 20.741554 15 51 28.23 -32 18 38.2 16.3 V Q63 – Siding Spring-LCO A MPS 515486
2014 05 20.742002 15 51 28.05 -32 18 34.9 16.3 V Q63 – Siding Spring-LCO A MPS 515486
2014 05 20.742518 15 51 27.82 -32 18 30.9 16.3 V Q63 – Siding Spring-LCO A MPS 515486
2014 05 20.742936 15 51 27.65 -32 18 27.7 16.3 V Q63 – Siding Spring-LCO A MPS 515486
2014 05 20.743426 15 51 27.44 -32 18 23.9 16.3 V Q63 – Siding Spring-LCO A MPS 515486
2014 05 20.743885 15 51 27.25 -32 18 20.5 16.3 V Q63 – Siding Spring-LCO A MPS 515486
2014 05 20.744336 15 51 27.06 -32 18 17.0 16.2 V Q63 – Siding Spring-LCO A MPS 515486
2014 05 20.744753 15 51 26.88 -32 18 13.8 16.3 V Q63 – Siding Spring-LCO A MPS 515486
2014 05 20.745240 15 51 26.68 -32 18 10.4 16.2 V Q63 – Siding Spring-LCO A MPS 515486
2014 05 21.10141 15 49 10.18 -31 35 23.6 16.3 R Y00 – SONEAR Observatory, Oliveira MPS 515486
2014 05 21.10242 15 49 09.80 -31 35 15.6 16.3 R Y00 – SONEAR Observatory, Oliveira MPS 515486
2014 05 21.10342 15 49 09.30 -31 35 08.2 16.1 R Y00 – SONEAR Observatory, Oliveira MPS 515486
2014 05 21.19494 15 48 36.86 -31 25 01.1 16.9 R G48 – Harlingten Research Observatory, Rancho Hildal MPS 515486
2014 05 21.19526 15 48 36.75 -31 24 59.1 16.8 R G48 – Harlingten Research Observatory, Rancho Hildal MPS 515486
2014 05 21.19558 15 48 36.62 -31 24 56.6 16.9 R G48 – Harlingten Research Observatory, Rancho Hildal MPS 515486
2014 05 21.19593 15 48 36.47 -31 24 54.0 16.8 R G48 – Harlingten Research Observatory, Rancho Hildal MPS 516615
2014 05 21.19626 15 48 36.34 -31 24 51.5 16.9 R G48 – Harlingten Research Observatory, Rancho Hildal MPS 516615
2014 05 21.19659 15 48 36.25 -31 24 49.7 16.7 R G48 – Harlingten Research Observatory, Rancho Hildal MPS 516615
2014 05 21.19759 15 48 35.86 -31 24 43.1 16.9 R G48 – Harlingten Research Observatory, Rancho Hildal MPS 516615
2014 05 21.20024 15 48 34.79 -31 24 24.8 16.8 R G48 – Harlingten Research Observatory, Rancho Hildal MPS 516615
2014 05 21.20056 15 48 34.70 -31 24 22.5 16.8 R G48 – Harlingten Research Observatory, Rancho Hildal MPS 516615
2014 05 21.20089 15 48 34.55 -31 24 20.2 16.9 R G48 – Harlingten Research Observatory, Rancho Hildal MPS 516615
2014 05 21.20121 15 48 34.43 -31 24 18.4 16.8 R G48 – Harlingten Research Observatory, Rancho Hildal MPS 516615
2014 05 21.20155 15 48 34.28 -31 24 15.7 16.8 R G48 – Harlingten Research Observatory, Rancho Hildal MPS 516615
2014 05 21.20188 15 48 34.17 -31 24 13.3 16.9 R G48 – Harlingten Research Observatory, Rancho Hildal MPS 516615
2014 05 21.20222 15 48 34.04 -31 24 11.2 16.8 R G48 – Harlingten Research Observatory, Rancho Hildal MPS 516615
2014 05 21.20255 15 48 33.91 -31 24 08.9 16.8 R G48 – Harlingten Research Observatory, Rancho Hildal MPS 516615
2014 05 21.20286 15 48 33.79 -31 24 06.7 16.9 R G48 – Harlingten Research Observatory, Rancho Hildal MPS 516615
2014 05 21.37645 15 47 32.04 -31 03 14.9 16.7   Q62 – iTelescope Observatory, Siding Spring MPS 515486
2014 05 21.38029 15 47 30.63 -31 02 49.5 16.7   Q62 – iTelescope Observatory, Siding Spring MPS 515486
2014 05 21.38444 15 47 29.13 -31 02 22.1 16.4   Q62 – iTelescope Observatory, Siding Spring MPS 515486
2014 05 21.47211 15 46 56.98 -30 52 45.1 16.1 V Q62 – iTelescope Observatory, Siding Spring MPS 515486
2014 05 21.47411 15 46 56.26 -30 52 31.9 15.5 V Q62 – iTelescope Observatory, Siding Spring MPS 515486
2014 05 21.51284 15 46 41.87 -30 48 16.3 15.9 V E23 – Arcadia MPS 515486
2014 05 21.51631 15 46 40.60 -30 47 53.4 16.0 V E23 – Arcadia MPS 515486
2014 05 21.51978 15 46 39.32 -30 47 30.7 15.9 V E23 – Arcadia MPS 515486
2014 05 21.53160 15 46 34.98 -30 46 13.1 16.1 V E23 – Arcadia MPS 515486
2014 05 21.53507 15 46 33.70 -30 45 50.1 16.5 V E23 – Arcadia MPS 515486
2014 05 21.53854 15 46 32.41 -30 45 27.4 16.4 V E23 – Arcadia MPS 515486
2014 05 21.59428 15 46 12.96 -30 40 13.6 16.3 V 900 – Moriyama MPS 515486
2014 05 21.59795 15 46 11.62 -30 39 49.9 16.2 V 900 – Moriyama MPS 515486
2014 05 21.60162 15 46 10.30 -30 39 25.7 16.4 V 900 – Moriyama MPS 515486
2014 05 21.62311 15 46 02.65 -30 37 06.0 16.2 R 300 – Bisei Spaceguard Center-BATTeRS MPS 515486
2014 05 21.62415 15 46 02.28 -30 36 59.0 16.2 R 300 – Bisei Spaceguard Center-BATTeRS MPS 515486
2014 05 21.62510 15 46 01.92 -30 36 52.6 16.1 R 300 – Bisei Spaceguard Center-BATTeRS MPS 515486
2014 05 21.62605 15 46 01.61 -30 36 46.6 16.2 R 300 – Bisei Spaceguard Center-BATTeRS MPS 515486
2014 05 21.62701 15 46 01.27 -30 36 40.4 16.2 R 300 – Bisei Spaceguard Center-BATTeRS MPS 515486
2014 05 21.69972 15 45 35.19 -30 28 47.5 16.1 V 900 – Moriyama MPS 515486
2014 05 21.70522 15 45 33.24 -30 28 11.8 16.1 V 900 – Moriyama MPS 515487
2014 05 21.851109 15 44 48.01 -30 12 50.5 15.6 R 089 – Mykolaiv MPS 515487
2014 05 21.853540 15 44 47.20 -30 12 35.0 16.2 R 089 – Mykolaiv MPS 515487
2014 05 21.855971 15 44 46.34 -30 12 20.7 15.2 R 089 – Mykolaiv MPS 515487
